Estación de San Fernando
Ultimos registro cada 15 minutos 82
| N° | Estación | Fecha / Hora | Temperatura | Humedad | Lluvia | Velocidad | Dirección | Radiación | Presion |
| 82 | San Fernando | 03-05-2026 20:15 | 14,7 | 73 | 0 | 0 | 220 | 0 | 1016,7 |
| 81 | San Fernando | 03-05-2026 20:00 | 14,9 | 72 | 0 | 0 | 220 | 0 | 1016,6 |
| 80 | San Fernando | 03-05-2026 19:45 | 15,2 | 72 | 0 | 0 | 162 | 0 | 1016,8 |
| 79 | San Fernando | 03-05-2026 19:30 | 15,5 | 71 | 0 | 0 | 232 | 0 | 1016,7 |
| 78 | San Fernando | 03-05-2026 19:15 | 15,7 | 70 | 0 | 0 | 228 | 0 | 1016,8 |
| 77 | San Fernando | 03-05-2026 19:00 | 15,9 | 68 | 0 | 0,4 | 228 | 0 | 1016,7 |
| 76 | San Fernando | 03-05-2026 18:45 | 16,2 | 67 | 0 | 0 | 209 | 0 | 1016,7 |
| 75 | San Fernando | 03-05-2026 18:30 | 16,5 | 64 | 0 | 0 | 214 | 0 | 1016,4 |
| 74 | San Fernando | 03-05-2026 18:15 | 16,9 | 59 | 0 | 0,4 | 237 | 0 | 1016,2 |
| 73 | San Fernando | 03-05-2026 18:00 | 17,3 | 54 | 0 | 0 | 218 | 5 | 1016,3 |
| 72 | San Fernando | 03-05-2026 17:45 | 17,8 | 53 | 0 | 0,4 | 221 | 12 | 1016,2 |
| 71 | San Fernando | 03-05-2026 17:30 | 18,1 | 49 | 0 | 0,9 | 271 | 35 | 1016,2 |
| 70 | San Fernando | 03-05-2026 17:15 | 17,9 | 51 | 0 | 1,3 | 223 | 56 | 1016,2 |
| 69 | San Fernando | 03-05-2026 17:00 | 17,9 | 57 | 0 | 0,9 | 228 | 83 | 1016 |
| 68 | San Fernando | 03-05-2026 16:45 | 17,9 | 59 | 0 | 0,4 | 209 | 86 | 1015,8 |
| 67 | San Fernando | 03-05-2026 16:30 | 17,9 | 59 | 0 | 0,4 | 270 | 128 | 1015,7 |
| 66 | San Fernando | 03-05-2026 16:15 | 18 | 59 | 0 | 0 | 243 | 100 | 1015,8 |
| 65 | San Fernando | 03-05-2026 16:00 | 18,3 | 58 | 0 | 0,9 | 197 | 107 | 1015,7 |
| 64 | San Fernando | 03-05-2026 15:45 | 18,8 | 58 | 0 | 0,9 | 228 | 125 | 1015,8 |
| 63 | San Fernando | 03-05-2026 15:30 | 19,1 | 59 | 0 | 0,9 | 149 | 178 | 1015,8 |
| 62 | San Fernando | 03-05-2026 15:15 | 19,4 | 56 | 0 | 1,8 | 180 | 193 | 1015,7 |
| 61 | San Fernando | 03-05-2026 15:00 | 20 | 54 | 0 | 0,4 | 266 | 156 | 1015,4 |
| 60 | San Fernando | 03-05-2026 14:45 | 20,7 | 50 | 0 | 0,4 | 223 | 190 | 1015,4 |
| 59 | San Fernando | 03-05-2026 14:30 | 21,4 | 50 | 0 | 0,4 | 192 | 473 | 1015,5 |
| 58 | San Fernando | 03-05-2026 14:15 | 21,2 | 44 | 0 | 0,9 | 220 | 288 | 1015,5 |
| 57 | San Fernando | 03-05-2026 14:00 | 21,3 | 43 | 0 | 0,4 | 250 | 308 | 1015,3 |
| 56 | San Fernando | 03-05-2026 13:45 | 20,9 | 53 | 0 | 0 | 168 | 401 | 1015,5 |
| 55 | San Fernando | 03-05-2026 13:30 | 20,5 | 51 | 0 | 0 | 239 | 311 | 1015,5 |
| 54 | San Fernando | 03-05-2026 13:15 | 20,1 | 52 | 0 | 0 | 230 | 327 | 1015,7 |
| 53 | San Fernando | 03-05-2026 13:00 | 19,9 | 53 | 0 | 0 | 240 | 352 | 1015,9 |
| 52 | San Fernando | 03-05-2026 12:45 | 19,6 | 54 | 0 | 0 | 187 | 323 | 1016 |
| 51 | San Fernando | 03-05-2026 12:30 | 19,2 | 54 | 0 | 0 | 187 | 287 | 1016,1 |
| 50 | San Fernando | 03-05-2026 12:15 | 18,8 | 55 | 0 | 0 | 172 | 262 | 1016,5 |
| 49 | San Fernando | 03-05-2026 12:00 | 18,6 | 56 | 0 | 0 | 249 | 260 | 1016,6 |
| 48 | San Fernando | 03-05-2026 11:45 | 18,6 | 51 | 0 | 0,4 | 226 | 325 | 1016,8 |
| 47 | San Fernando | 03-05-2026 11:30 | 18,7 | 56 | 0 | 0 | 237 | 267 | 1016,8 |
| 46 | San Fernando | 03-05-2026 11:15 | 18,8 | 53 | 0 | 0,9 | 195 | 260 | 1016,8 |
| 45 | San Fernando | 03-05-2026 11:00 | 18,1 | 59 | 0 | 0 | 164 | 554 | 1016,9 |
| 44 | San Fernando | 03-05-2026 10:45 | 17,2 | 63 | 0 | 0,4 | 137 | 441 | 1017,1 |
| 43 | San Fernando | 03-05-2026 10:30 | 16,8 | 61 | 0 | 0 | 237 | 420 | 1017,2 |
| 42 | San Fernando | 03-05-2026 10:15 | 16,1 | 64 | 0 | 0 | 162 | 390 | 1017,1 |
| 41 | San Fernando | 03-05-2026 10:00 | 15,5 | 65 | 0 | 0 | 221 | 369 | 1017,1 |
| 40 | San Fernando | 03-05-2026 09:45 | 14,4 | 71 | 0 | 0 | 221 | 348 | 1017,1 |
| 39 | San Fernando | 03-05-2026 09:30 | 13,2 | 74 | 0 | 0 | 221 | 308 | 1017,1 |
| 38 | San Fernando | 03-05-2026 09:15 | 12,2 | 77 | 0 | 0 | 221 | 262 | 1017,4 |
| 37 | San Fernando | 03-05-2026 09:00 | 11,3 | 81 | 0 | 0,4 | 237 | 209 | 1017,2 |
| 36 | San Fernando | 03-05-2026 08:45 | 10,7 | 84 | 0 | 0 | 237 | 172 | 1016,9 |
| 35 | San Fernando | 03-05-2026 08:30 | 8,8 | 92 | 0 | 0 | 68 | 134 | 1016,4 |
| 34 | San Fernando | 03-05-2026 08:15 | 7,1 | 92 | 0 | 0 | 68 | 18 | 1016,3 |
| 33 | San Fernando | 03-05-2026 08:00 | 5,8 | 91 | 0 | 0 | 67 | 16 | 1016,1 |
| 32 | San Fernando | 03-05-2026 07:45 | 5,8 | 90 | 0 | 0 | 67 | 12 | 1016,1 |
| 31 | San Fernando | 03-05-2026 07:30 | 6,1 | 91 | 0 | 0 | 67 | 7 | 1015,8 |
| 30 | San Fernando | 03-05-2026 07:15 | 5,6 | 90 | 0 | 0,9 | 62 | 0 | 1015,7 |
| 29 | San Fernando | 03-05-2026 07:00 | 5,8 | 90 | 0 | 0 | 62 | 0 | 1015,6 |
| 28 | San Fernando | 03-05-2026 06:45 | 6,1 | 90 | 0 | 0 | 94 | 0 | 1015,5 |
| 27 | San Fernando | 03-05-2026 06:30 | 6,3 | 89 | 0 | 0 | 94 | 0 | 1015,5 |
| 26 | San Fernando | 03-05-2026 06:15 | 6,3 | 90 | 0 | 0 | 214 | 0 | 1015,3 |
| 25 | San Fernando | 03-05-2026 06:00 | 6,6 | 89 | 0 | 0 | 214 | 0 | 1015,3 |
| 24 | San Fernando | 03-05-2026 05:45 | 6,8 | 87 | 0 | 0 | 214 | 0 | 1015,4 |
| 23 | San Fernando | 03-05-2026 05:30 | 7,3 | 87 | 0 | 0 | 214 | 0 | 1016 |
| 22 | San Fernando | 03-05-2026 05:15 | 7,8 | 87 | 0 | 0 | 214 | 0 | 1016,1 |
| 21 | San Fernando | 03-05-2026 05:00 | 8,1 | 88 | 0 | 0 | 214 | 0 | 1016,2 |
| 20 | San Fernando | 03-05-2026 04:45 | 7,9 | 88 | 0 | 0 | 214 | 0 | 1016,2 |
| 19 | San Fernando | 03-05-2026 04:30 | 7,6 | 89 | 0 | 0 | 214 | 0 | 1016,3 |
| 18 | San Fernando | 03-05-2026 04:15 | 7,3 | 87 | 0 | 0 | 214 | 0 | 1016,1 |
| 17 | San Fernando | 03-05-2026 04:00 | 7,5 | 85 | 0 | 0 | 214 | 0 | 1015,8 |
| 16 | San Fernando | 03-05-2026 03:45 | 7,9 | 85 | 0 | 0 | 214 | 0 | 1015,6 |
| 15 | San Fernando | 03-05-2026 03:30 | 7,8 | 86 | 0 | 0 | 214 | 0 | 1015,8 |
| 14 | San Fernando | 03-05-2026 03:15 | 8,1 | 85 | 0 | 0 | 214 | 0 | 1016,1 |
| 13 | San Fernando | 03-05-2026 03:00 | 8,4 | 86 | 0 | 0 | 214 | 0 | 1016,2 |
| 12 | San Fernando | 03-05-2026 02:45 | 8,6 | 86 | 0 | 0 | 214 | 0 | 1016,5 |
| 11 | San Fernando | 03-05-2026 02:30 | 8,4 | 85 | 0 | 0 | 214 | 0 | 1016,2 |
| 10 | San Fernando | 03-05-2026 02:15 | 8,7 | 84 | 0 | 0 | 214 | 0 | 1016,3 |
| 9 | San Fernando | 03-05-2026 02:00 | 8,9 | 84 | 0 | 0 | 214 | 0 | 1016,2 |
| 8 | San Fernando | 03-05-2026 01:45 | 8,7 | 85 | 0 | 0,4 | 214 | 0 | 1016,1 |
| 7 | San Fernando | 03-05-2026 01:30 | 8,2 | 86 | 0 | 0 | 281 | 0 | 1016,1 |
| 6 | San Fernando | 03-05-2026 01:15 | 7,9 | 87 | 0 | 0,4 | 226 | 0 | 1016 |
| 5 | San Fernando | 03-05-2026 01:00 | 8,1 | 85 | 0 | 0 | 226 | 0 | 1015,8 |
| 4 | San Fernando | 03-05-2026 00:45 | 8,4 | 84 | 0 | 0 | 226 | 0 | 1015,8 |
| 3 | San Fernando | 03-05-2026 00:30 | 8,9 | 83 | 0 | 0 | 226 | 0 | 1015,8 |
| 2 | San Fernando | 03-05-2026 00:15 | 9,5 | 82 | 0 | 0 | 226 | 0 | 1016 |
| 1 | San Fernando | 03-05-2026 00:00 | 9,8 | 81 | 0 | 0 | 226 | 0 | 1016,2 |